Location: Carr Mill
(33.2054°N, 85.9439°W)
Time: 10:34:37
(UTC+00:00)

STARLINK-2732 - Visible Passes

Search period start: 23 October 2021 00:00
Search period end: 02 November 2021 00:00
Orbit: 546 x 548 km, 53.1° (Epoch: 23 October)

Date Brightness Start Highest point End Pass type
(mag) Time Alt. Az. Time Alt. Az. Time Alt. Az.
23 Oct 4.8 11:24:45 10° SSW 11:28:41 45° SE 11:32:37 10° ENE visible
24 Oct 4.0 11:18:16 10° SSW 11:22:20 66° SE 11:26:26 10° NE visible
25 Oct 3.6 11:11:56 10° SW 11:16:03 86° NW 11:20:11 10° NE visible
26 Oct 6.4 09:29:42 12° SE 09:30:44 13° ESE 09:32:39 10° E visible
26 Oct 3.6 11:05:45 10° SW 11:09:49 61° NW 11:13:54 10° NE visible
27 Oct 6.2 09:25:02 18° ESE 09:25:02 18° ESE 09:27:17 10° E visible
27 Oct 4.0 11:00:43 17° WSW 11:03:37 43° NW 11:07:34 10° NNE visible
28 Oct 6.3 09:20:07 18° E 09:20:07 18° E 09:21:33 10° ENE visible
28 Oct 4.4 10:55:47 23° W 10:57:29 32° NW 11:01:13 10° NNE visible
29 Oct 6.6 09:14:59 14° ENE 09:14:59 14° ENE 09:15:38 10° ENE visible
29 Oct 4.8 10:50:38 23° NW 10:51:24 24° NW 10:54:49 10° NNE visible
30 Oct 5.2 10:45:20 19° NW 10:45:21 19° NNW 10:48:22 10° NNE visible
31 Oct 5.6 10:39:55 15° NNW 10:39:55 15° NNW 10:41:52 10° N visible
01 Nov 5.9 10:34:24 12° NNW 10:34:24 12° NNW 10:35:11 10° N visible
